Regional Weather Roundup
Issued by NWS Goodland, KS

Current Version | Previous Version | Text Only | Print | Product List | Glossary On
Versions: 1 2 3 4 5 6 7 8 9 10 11 12 13 14 15 16 17 18 19 20 21 22 23 24 25 26 27 28 29 30 31 32 33 34 35 36 37 38 39 40 41 42 43 44 45 46 47 48 49 50
000
ASUS43 KGLD 240608
RWRGLD

GOODLAND FORECAST AREA HOURLY WEATHER ROUNDUP
NATIONAL WEATHER SERVICE GOODLAND KS
1100 PM MST THU FEB 23 2017

...OFFICIAL OBSERVATIONS...

CITY           SKY/WX    TMP DP  RH WIND       PRES   REMARKS
GOODLAND KS    CLOUDY    24  20  84 N25G31    29.76S WCI   8
HILL CITY KS   CLOUDY    31  26  82 N15G22    29.76S
IMPERIAL NEB   LGT SNOW  23  19  85 N18       29.82S FOG     WCI   9
MCCOOK NEB     CLOUDY    27  24  89 N16G25    29.78R WCI  15
AKRON CO       LGT SNOW  19  16  88 N12       29.82R FOG     WCI   7
BURLINGTON CO  CLOUDY    23  18  81 N18G28    29.78R WCI   9
LIMON CO       CLOUDY    18  15  88 NW22G31   29.79S WCI   1
$$

...UNOFFICIAL OBSERVATIONS...

CITY           SKY/WX    TMP DP  RH WIND       PRES   REMARKS
LENORA KS        N/A     29  32 100 N12G18      N/A  WCI  19
NORTON KS      CLOUDY    28  21  74 NW16      29.75R WCI  17
SHARON SPRINGS   N/A     25  21  83 N16G25      N/A  WCI  12
TRENTON NEB      N/A     25  32 100 CALM        N/A
KIT CARSON CO    N/A     22  15  73 MISG        N/A
YUMA CO        LGT SNOW  21  19  93 NW5       29.82S
$$



USA.gov is the U.S. government's official web portal to all federal, state and local government web resources and services.